Amsterdam, Netherlands

9:05 PM CEST on October 23, 2019 (GMT +0200)
Schiphol

Weather History for EHAM - August, 2019

Change the Weather History Date:

Thursday, August 8, 2019

  Actual Average Record
Temperature  
Mean Temperature 66 °F -  
Max Temperature 72 °F 68 °F 87 °F (2004)
Min Temperature 59 °F 54 °F 53 °F (1996)
Cooling Degree Days 1    
Growing Degree Days 16 (Base 50)    
Moisture  
Dew Point 57 °F    
Average Humidity 69    
Maximum Humidity 94    
Minimum Humidity 42    
Precipitation  
Precipitation 0.00 in - - ()
Sea Level Pressure  
Sea Level Pressure 29.82 in    
Wind  
Wind Speed 11 mph ()    
Max Wind Speed 18 mph    
Max Gust Speed -    
Visibility 8.1 miles    
Events      
Averages and records for this station are not official NWS values.
T = Trace of Precipitation, MM = Missing Value Source: Averaged Metar Reports

Daily Weather History Graph

Daily Weather History Graph

Search for Another Location

Airport or City:

Astronomy

Aug. 08, 2019 Rise Set
Actual Time 6:12 AM CEST 9:20 PM CEST
Civil Twilight 5:31 AM CEST 10:00 PM CEST
Nautical Twilight 4:38 AM CEST 10:52 PM CEST
Astronomical Twilight 3:28 AM CEST 12:01 AM CEST
Moon 3:37 PM CEST (8/8) 12:33 AM CEST (8/8)
Length of Visible Light 16h 28m
Length of Day
15h 08m
First Quarter, 57% of the Moon is Illuminated
Aug 8
First Quarter
Aug 15
Full
Aug 23
Last Quarter
Aug 30
New
Sep 6
First Quarter

Hourly Weather History & Observations

Time (CEST) Temp. Dew Point Humidity Pressure Visibility Wind Dir Wind Speed Gust Speed Precip Events Conditions
12:00 AM 66 °F 59 °F 73% 29.76 in 12 mi SW 13.4 mph - -   Partly Cloudy
12:25 AM 66.2 °F 59.0 °F 78% 29.74 in - SW 12.7 mph - N/A   Clear
12:55 AM 66.2 °F 59.0 °F 78% 29.74 in - SW 12.7 mph - N/A   Clear
1:25 AM 64.4 °F 59.0 °F 83% 29.74 in 6.2 mi SW 12.7 mph - N/A   Partly Cloudy
1:55 AM 64.4 °F 59.0 °F 83% 29.74 in 6.2 mi SW 11.5 mph - N/A   Partly Cloudy
2:00 AM 64 °F 60 °F 82% 29.76 in 11 mi SW 11.2 mph - -   Partly Cloudy
2:25 AM 64.4 °F 59.0 °F 83% 29.74 in 6.2 mi SW 11.5 mph - N/A   Scattered Clouds
2:55 AM 64.4 °F 59.0 °F 83% 29.74 in 6.2 mi SW 10.4 mph - N/A   Scattered Clouds
3:00 AM 64 °F 60 °F 81% 29.76 in 11 mi SW 11.2 mph - -   Partly Cloudy
3:25 AM 64.4 °F 59.0 °F 83% 29.74 in 6.2 mi SW 10.4 mph - N/A   Partly Cloudy
3:55 AM 64.4 °F 59.0 °F 83% 29.74 in 6.2 mi SW 12.7 mph - N/A   Mostly Cloudy
4:00 AM 65 °F 60 °F 77% 29.76 in 12 mi WSW 13.4 mph - -   Partly Cloudy
4:25 AM 64.4 °F 59.0 °F 83% 29.74 in 6.2 mi SW 12.7 mph - N/A   Mostly Cloudy
4:55 AM 64.4 °F 60.8 °F 88% 29.74 in 6.2 mi SW 9.2 mph - N/A   Mostly Cloudy
5:00 AM 64 °F 60 °F 84% 29.76 in 11 mi SW 8.9 mph - -   Partly Cloudy
5:25 AM 62.6 °F 60.8 °F 94% 29.74 in 6.2 mi SSW 9.2 mph - N/A   Scattered Clouds
5:55 AM 64.4 °F 60.8 °F 88% 29.77 in 6.2 mi SSW 10.4 mph - N/A   Mostly Cloudy
6:00 AM 64 °F 60 °F 83% 29.77 in 10 mi SSW 8.9 mph - -   Overcast
6:25 AM 64.4 °F 60.8 °F 88% 29.77 in 6.2 mi SSW 10.4 mph - N/A   Scattered Clouds
6:55 AM 62.6 °F 59.0 °F 88% 29.77 in 6.2 mi SSW 11.5 mph - N/A   Scattered Clouds
7:25 AM 64.4 °F 60.8 °F 88% 29.77 in 6.2 mi SW 10.4 mph - N/A   Partly Cloudy
7:55 AM 66.2 °F 59.0 °F 78% 29.77 in 6.2 mi SW 9.2 mph - N/A   Partly Cloudy
8:00 AM 66 °F 59 °F 72% 29.79 in 12 mi SW 8.9 mph - -   Partly Cloudy
8:25 AM 66.2 °F 59.0 °F 78% 29.80 in 6.2 mi WSW 11.5 mph - N/A   Partly Cloudy
8:55 AM 66.2 °F 57.2 °F 73% 29.80 in 6.2 mi West 13.8 mph - N/A   Partly Cloudy
9:25 AM 66.2 °F 57.2 °F 73% 29.80 in 6.2 mi WSW 13.8 mph - N/A   Partly Cloudy
9:55 AM 68.0 °F 57.2 °F 68% 29.80 in 6.2 mi West 15.0 mph - N/A   Partly Cloudy
10:00 AM 67 °F 56 °F 60% 29.83 in 19 mi West 15.7 mph - -   Partly Cloudy
10:25 AM 68.0 °F 55.4 °F 64% 29.83 in 6.2 mi West 15.0 mph - N/A   Partly Cloudy
10:55 AM 69.8 °F 57.2 °F 64% 29.83 in 6.2 mi WSW 16.1 mph - N/A   Partly Cloudy
11:00 AM 69 °F 57 °F 56% 29.84 in 17 mi WSW 15.7 mph - -   Scattered Clouds
11:25 AM 69.8 °F 55.4 °F 60% 29.83 in 6.2 mi WSW 15.0 mph - N/A   Partly Cloudy
11:55 AM 69.8 °F 57.2 °F 64% 29.83 in 6.2 mi WSW 13.8 mph - N/A   Partly Cloudy
12:00 PM 68 °F 56 °F 58% 29.85 in 22 mi WSW 13.4 mph - -   Partly Cloudy
12:25 PM 69.8 °F 57.2 °F 64% 29.83 in 6.2 mi West 17.3 mph - N/A   Partly Cloudy
12:55 PM 71.6 °F 57.2 °F 60% 29.83 in 6.2 mi WSW 18.4 mph - N/A   Partly Cloudy
1:25 PM 71.6 °F 57.2 °F 60% 29.86 in 6.2 mi WSW 17.3 mph - N/A   Partly Cloudy
1:55 PM 71.6 °F 55.4 °F 57% 29.86 in 6.2 mi WSW 16.1 mph - N/A   Partly Cloudy
2:00 PM 71 °F 55 °F 46% 29.87 in 19 mi WSW 15.7 mph - -   Partly Cloudy
2:25 PM 69.8 °F 55.4 °F 60% 29.86 in 6.2 mi WSW 16.1 mph - N/A   Partly Cloudy
2:55 PM 71.6 °F 55.4 °F 57% 29.86 in 6.2 mi WSW 16.1 mph - N/A   Partly Cloudy
3:25 PM 71.6 °F 53.6 °F 53% 29.86 in 6.2 mi West 17.3 mph - N/A   Partly Cloudy
3:55 PM 71.6 °F 51.8 °F 50% 29.86 in 6.2 mi West 18.4 mph - N/A   Partly Cloudy
4:00 PM 72 °F 54 °F 42% 29.88 in 19 mi West 15.7 mph - -  
4:25 PM 71.6 °F 55.4 °F 57% 29.86 in 6.2 mi West 15.0 mph - N/A   Partly Cloudy
4:55 PM 71.6 °F 55.4 °F 57% 29.86 in 6.2 mi West 13.8 mph - N/A   Partly Cloudy
5:00 PM 72 °F 55 °F 44% 29.87 in 22 mi West 11.2 mph - -  
5:25 PM 71.6 °F 53.6 °F 53% 29.86 in 6.2 mi West 12.7 mph - N/A   Partly Cloudy
5:55 PM 71.6 °F 55.4 °F 57% 29.86 in 6.2 mi West 12.7 mph - N/A   Partly Cloudy
6:00 PM 71 °F 54 °F 45% 29.88 in 22 mi West 11.2 mph - -   Scattered Clouds
6:25 PM 71.6 °F 55.4 °F 57% 29.86 in 6.2 mi West 11.5 mph - N/A   Partly Cloudy
6:55 PM 68.0 °F 55.4 °F 64% 29.89 in 6.2 mi West 10.4 mph - N/A   Partly Cloudy
7:00 PM 69 °F 55 °F 52% 29.89 in 25 mi West 8.9 mph - -   Overcast
7:25 PM 69.8 °F 55.4 °F 60% 29.89 in - West 8.1 mph - N/A   Clear
7:55 PM 68.0 °F 53.6 °F 60% 29.86 in - West 5.8 mph - N/A   Clear
8:00 PM 68 °F 55 °F 54% 29.88 in 25 mi West 6.7 mph - -   Partly Cloudy
8:25 PM 68.0 °F 55.4 °F 64% 29.86 in - NW 5.8 mph - N/A   Clear
8:55 PM 66.2 °F 55.4 °F 68% 29.86 in - NW 3.5 mph - N/A   Clear
9:00 PM 65 °F 54 °F 60% 29.88 in 28 mi NW 2.2 mph - -   Partly Cloudy
9:25 PM 64.4 °F 53.6 °F 68% 29.86 in - Variable 2.3 mph - N/A   Clear
9:55 PM 64.4 °F 53.6 °F 68% 29.86 in - Variable 1.2 mph - N/A   Clear
10:00 PM 62 °F 54 °F 66% 29.89 in 14 mi 2.2 mph - -  
10:25 PM 62.6 °F 53.6 °F 72% 29.86 in - Variable 2.3 mph - N/A   Clear
10:55 PM 60.8 °F 55.4 °F 82% 29.86 in - ENE 2.3 mph - N/A   Clear
11:00 PM 61 °F 55 °F 75% 29.88 in 28 mi East 2.2 mph - -  
11:25 PM 60.8 °F 55.4 °F 82% 29.86 in - ENE 3.5 mph - N/A   Clear
11:55 PM 59.0 °F 55.4 °F 88% 29.86 in - ENE 3.5 mph - N/A   Clear